Weather History for KDPA - January, 2013

Change the Weather History Date:

Thursday, January 3, 2013

  Actual Average Record
Temperature  
Mean Temperature 22 °F 24 °F  
Max Temperature 28 °F 31 °F 57 °F (1998)
Min Temperature 16 °F 16 °F -12 °F (2014)
Degree Days  
Heating Degree Days 43 42  
Month to date heating degree days 140 124  
Since 1 July heating degree days 2516 2551  
Cooling Degree Days 0 0  
Month to date cooling degree days 0 0  
Year to date cooling degree days 0 0  
Moisture  
Dew Point 19 °F    
Average Humidity 80    
Maximum Humidity 88    
Minimum Humidity 72    
Precipitation  
Precipitation T in 0.05 in 0.57 in (1998)
Month to date precipitation T 0.16  
Year to date precipitation T 0.16  
Sea Level Pressure  
Sea Level Pressure 30.20 in    
Wind  
Wind Speed 10 mph (West)    
Max Wind Speed 17 mph    
Max Gust Speed 22 mph    
Visibility 8 miles    
Events Snow    
T = Trace of Precipitation, MM = Missing Value Source: NWS Daily Summary

Daily Weather History Graph

Daily Weather History Graph

Search for Another Location

Airport or City:

Trip Planner

Search our weather history database for the weather conditions in past years. The results will help you decide how hot, cold, wet, or windy it might be!

Date:

Astronomy

Jan. 03, 2013 Rise Set
Actual Time 7:20 AM CST 4:34 PM CST
Civil Twilight 6:49 AM CST 5:06 PM CST
Nautical Twilight 6:14 AM CST 5:41 PM CST
Astronomical Twilight 5:40 AM CST 6:14 PM CST
Moon 11:16 PM CST (1/3) 10:26 AM CST (1/3)
Length of Visible Light 10h 16m
Length of Day
9h 13m
Waning Gibbous, 65% of the Moon is Illuminated
Jan 3
Waning Gibbous
Jan 4
Last Quarter
Jan 11
New
Jan 18
First Quarter
Jan 26
Full

Hourly Weather History & Observations

Time (CST) Temp. Windchill Dew Point Humidity Pressure Visibility Wind Dir Wind Speed Gust Speed Precip Events Conditions
1:52 AM 24.1 °F 13.7 °F 17.1 °F 75% 30.11 in 9.0 mi SW 10.4 mph - N/A   Overcast
2:00 AM 24.8 °F 14.6 °F 17.6 °F 74% 30.08 in 9.0 mi SW 10.4 mph - N/A   Overcast
2:52 AM 25.0 °F 15.5 °F 19.9 °F 81% 30.12 in 10.0 mi WSW 9.2 mph - N/A   Overcast
3:52 AM 26.1 °F 17.6 °F 21.0 °F 81% 30.11 in 7.0 mi WSW 8.1 mph - N/A   Overcast
4:52 AM 26.1 °F 17.6 °F 21.9 °F 84% 30.12 in 6.0 mi WSW 8.1 mph - N/A   Overcast
5:52 AM 27.0 °F 16.7 °F 23.0 °F 85% 30.13 in 5.0 mi West 11.5 mph - N/A   Overcast
6:52 AM 28.0 °F 18.1 °F 24.1 °F 85% 30.14 in 5.0 mi West 11.5 mph - N/A   Overcast
7:52 AM 28.0 °F 19.3 °F 24.1 °F 85% 30.16 in 6.0 mi West 9.2 mph - N/A   Overcast
8:20 AM 28.4 °F 19.1 °F 24.8 °F 86% 30.13 in 5.0 mi West 10.4 mph - N/A   Overcast
8:52 AM 28.0 °F 17.0 °F 24.1 °F 85% 30.17 in 6.0 mi West 13.8 mph - N/A   Overcast
9:52 AM 28.0 °F 19.3 °F 23.0 °F 81% 30.20 in 8.0 mi West 9.2 mph - N/A   Overcast
10:52 AM 27.0 °F 16.7 °F 19.0 °F 72% 30.20 in 10.0 mi West 11.5 mph - N/A   Overcast
11:52 AM 26.1 °F 16.2 °F 19.9 °F 78% 30.20 in 8.0 mi West 10.4 mph - N/A   Overcast
12:44 PM 26.6 °F 15.7 °F 19.4 °F 74% 30.16 in 9.0 mi West 12.7 mph - 0.00 in Snow Light Snow
12:52 PM 27.0 °F 17.3 °F 19.9 °F 75% 30.20 in 8.0 mi West 10.4 mph - 0.00 in Snow Light Snow
1:52 PM 27.0 °F 17.3 °F 19.9 °F 75% 30.21 in 9.0 mi WNW 10.4 mph - 0.00 in   Overcast
2:34 PM 26.6 °F 16.2 °F 19.4 °F 74% 30.18 in 10.0 mi West 11.5 mph - N/A   Overcast
2:52 PM 27.0 °F 16.7 °F 19.0 °F 72% 30.22 in 10.0 mi WSW 11.5 mph - N/A   Overcast
3:52 PM 26.1 °F 15.0 °F 19.0 °F 75% 30.24 in 10.0 mi West 12.7 mph - N/A   Overcast
4:52 PM 25.0 °F 13.1 °F 18.0 °F 75% 30.25 in 10.0 mi West 13.8 mph - N/A   Overcast
5:52 PM 24.1 °F 12.0 °F 17.1 °F 75% 30.27 in 10.0 mi West 13.8 mph - N/A   Overcast
6:52 PM 23.0 °F 13.1 °F 17.1 °F 78% 30.28 in 9.0 mi West 9.2 mph - N/A   Overcast
7:52 PM 19.9 °F 8.6 °F 16.0 °F 85% 30.30 in 9.0 mi West 10.4 mph - N/A   Clear
8:52 PM 19.0 °F 11.1 °F 15.1 °F 85% 30.29 in 8.0 mi WSW 5.8 mph - N/A   Clear
9:52 PM 17.1 °F 5.8 °F 14.0 °F 88% 30.28 in 8.0 mi WSW 9.2 mph - N/A   Clear
10:52 PM 17.1 °F 5.0 °F 12.9 °F 84% 30.28 in 9.0 mi West 10.4 mph - N/A   Clear
11:52 PM 16.0 °F 5.3 °F 12.0 °F 84% 30.29 in 9.0 mi West 8.1 mph - N/A   Clear